User: anonymous
Location: Pine Mountain Observatory
(43.7910°N, 120.9377°W)
Time: 12:25:47
(UTC-07:00)
Language:

APEX - Orbit

View from above orbital plane
View from above orbital plane
View from above satellite
View from above satellite

Ground track
Ground track

The orbit data is extracted from the following two-line orbital elements,

1 23191U 94046A   14105.07394920  .00027812  00000-0  11536-2 0  8766
2 23191 069.9217 323.1533 0754924 020.8681 127.9465 14.01159132951688
Epoch (UTC): 15 April 2014 01:46:29
Eccentricity: 0.0754924
inclination: 69.9217°
perigee height: 341 km
apogee height: 1438 km
right ascension of ascending node: 323.1533°
argument of perigee: 20.8681°
revolutions per day: 14.01159132
mean anomaly at epoch: 127.9465°
orbit number at epoch: 95168

The dashed part of the orbit path shows where the satellite is in the earth's shadow,  

DLR